This is the latest recevied weather packets stored in our database for station/object KK7KRZ. If no packets are shown the sender has not sent any weather packets the latest 10 day(s).
| Time | Temp. | Humidity | Pressure | Rain* | Wind** | Luminosity | Snow |
|---|---|---|---|---|---|---|---|
| 1777027353 | 6.11° C | 96% | 1019.1 hPa | 0 mm | - | 0 W/m² | - |
| 1777027050 | 5.56° C | 96% | 1019.2 hPa | 0 mm | - | 0 W/m² | - |
| 1777026747 | 5.56° C | 96% | 1019.3 hPa | 0 mm | - | 0 W/m² | - |
| 1777026442 | 6.11° C | 96% | 1019 hPa | 0 mm | - | 0 W/m² | - |
| 1777026139 | 6.11° C | 96% | 1019.3 hPa | 0 mm | - | 0 W/m² | - |
| 1777025837 | 6.11° C | 95% | 1019.4 hPa | 0 mm | - | 0 W/m² | - |
| 1777025531 | 6.11° C | 95% | 1019.3 hPa | 0 mm | - | 0 W/m² | - |
| 1777025228 | 6.11° C | 95% | 1019.1 hPa | 0 mm | - | 0 W/m² | - |
| 1777024923 | 5.56° C | 95% | 1019.2 hPa | 0 mm | - | 0 W/m² | - |
| 1777024619 | 6.11° C | 94% | 1019.3 hPa | 0 mm | - | 0 W/m² | - |
| 1777024315 | 6.11° C | 94% | 1019.1 hPa | 0 mm | - | 0 W/m² | - |
| 1777024010 | 6.11° C | 94% | 1019.3 hPa | 0 mm | - | 0 W/m² | - |
| 1777023707 | 6.11° C | 94% | 1019.1 hPa | 0 mm | - | 0 W/m² | - |
| 1777023405 | 6.67° C | 94% | 1019.5 hPa | 0 mm | - | 0 W/m² | - |
| 1777023100 | 6.67° C | 94% | 1019.3 hPa | 0 mm | - | 0 W/m² | - |
| 1777022796 | 6.67° C | 94% | 1019.3 hPa | 0 mm | - | 0 W/m² | - |
| 1777022492 | 7.22° C | 94% | 1019.3 hPa | 0 mm | - | 0 W/m² | - |
| 1777022188 | 7.22° C | 95% | 1019.4 hPa | 0 mm | - | 0 W/m² | - |
| 1777021885 | 7.22° C | 95% | 1019.4 hPa | 0 mm | - | 0 W/m² | - |
| 1777021582 | 7.22° C | 95% | 1019.4 hPa | 0 mm | - | 0 W/m² | - |
| 1777021277 | 6.67° C | 95% | 1019.4 hPa | 0 mm | - | 0 W/m² | - |
| 1777020974 | 6.67° C | 95% | 1019.4 hPa | 0 mm | - | 0 W/m² | - |
| 1777020669 | 6.67° C | 95% | 1019.7 hPa | 0 mm | - | 0 W/m² | - |
| 1777020365 | 6.11° C | 94% | 1019.5 hPa | 0 mm | - | 0 W/m² | - |
| 1777020063 | 6.11° C | 94% | 1019.6 hPa | 0 mm | - | 0 W/m² | - |
* Rain latest hour (hover to see other rain measurements)
** Current wind speed in m/s (hover to see current wind gust speed)